Time,TemperatureF,DewpointF,PressureIn,WindDirection,WindDirectionDegrees,WindSpeedMPH,WindSpeedGustMPH,Humidity,HourlyPrecipIn,Conditions,Clouds,dailyrainin,SoftwareType,DateUTC
2013-05-22 00:08:00,43.3,37.0,25.20,NW,317,3.0,4.0,79,0.00,,,0.00,weatherlink.com 1.10,2013-05-22 06:08:00,
2013-05-22 00:23:00,42.4,37.0,25.20,NNW,341,2.0,3.0,80,0.00,,,0.00,weatherlink.com 1.10,2013-05-22 06:23:00,
2013-05-22 00:38:00,41.1,36.0,25.20,NW,317,2.0,4.0,81,0.00,,,0.00,weatherlink.com 1.10,2013-05-22 06:38:00,
2013-05-22 00:53:00,41.5,36.0,25.22,SW,224,10.0,10.0,82,0.00,,,0.00,weatherlink.com 1.10,2013-05-22 06:53:00,
2013-05-22 01:08:00,42.6,37.0,25.22,SW,217,4.0,9.0,81,0.00,,,0.00,weatherlink.com 1.10,2013-05-22 07:08:00,
2013-05-22 01:23:00,43.2,37.0,25.22,WNW,290,2.0,8.0,80,0.00,,,0.00,weatherlink.com 1.10,2013-05-22 07:23:00,
2013-05-22 01:38:00,42.6,37.0,25.21,NW,308,3.0,6.0,80,0.00,,,0.00,weatherlink.com 1.10,2013-05-22 07:38:00,
2013-05-22 01:53:00,42.0,37.0,25.22,West,264,6.0,7.0,81,0.00,,,0.00,weatherlink.com 1.10,2013-05-22 07:53:00,
2013-05-22 02:08:00,41.3,36.0,25.22,WNW,302,2.0,6.0,82,0.00,,,0.00,weatherlink.com 1.10,2013-05-22 08:08:00,
2013-05-22 02:23:00,41.0,36.0,25.20,NW,319,3.0,5.0,82,0.00,,,0.00,weatherlink.com 1.10,2013-05-22 08:23:00,
2013-05-22 02:38:00,40.9,36.0,25.20,WNW,288,2.0,4.0,83,0.00,,,0.00,weatherlink.com 1.10,2013-05-22 08:38:00,
2013-05-22 02:53:00,40.5,36.0,25.20,WNW,288,3.0,4.0,83,0.00,,,0.00,weatherlink.com 1.10,2013-05-22 08:53:00,
2013-05-22 03:08:00,39.8,35.0,25.20,West,273,3.0,7.0,83,0.00,,,0.00,weatherlink.com 1.10,2013-05-22 09:08:00,
2013-05-22 03:23:00,39.1,35.0,25.20,WNW,288,3.0,5.0,85,0.00,,,0.00,weatherlink.com 1.10,2013-05-22 09:23:00,
2013-05-22 03:39:00,39.0,35.0,25.19,WNW,293,2.0,5.0,85,0.00,,,0.00,weatherlink.com 1.10,2013-05-22 09:39:00,
2013-05-22 03:54:00,39.1,35.0,25.19,West,259,3.0,4.0,85,0.00,,,0.00,weatherlink.com 1.10,2013-05-22 09:54:00,
2013-05-22 04:09:00,38.9,35.0,25.19,West,276,2.0,5.0,85,0.00,,,0.00,weatherlink.com 1.10,2013-05-22 10:09:00,
2013-05-22 04:24:00,38.6,35.0,25.19,West,276,2.0,4.0,85,0.00,,,0.00,weatherlink.com 1.10,2013-05-22 10:24:00,
2013-05-22 04:39:00,38.6,35.0,25.19,WSW,255,3.0,5.0,85,0.00,,,0.00,weatherlink.com 1.10,2013-05-22 10:39:00,
2013-05-22 04:54:00,38.2,34.0,25.19,West,271,3.0,5.0,86,0.00,,,0.00,weatherlink.com 1.10,2013-05-22 10:54:00,
2013-05-22 05:09:00,37.2,34.0,25.19,West,269,3.0,3.0,87,0.00,,,0.00,weatherlink.com 1.10,2013-05-22 11:09:00,
2013-05-22 05:24:00,37.2,34.0,25.19,WSW,247,3.0,5.0,87,0.00,,,0.00,weatherlink.com 1.10,2013-05-22 11:24:00,
2013-05-22 05:39:00,37.3,34.0,25.19,WNW,293,1.0,6.0,87,0.00,,,0.00,weatherlink.com 1.10,2013-05-22 11:39:00,
2013-05-22 05:54:00,37.4,34.0,25.19,West,261,2.0,4.0,88,0.00,,,0.00,weatherlink.com 1.10,2013-05-22 11:54:00,
2013-05-22 06:09:00,38.1,35.0,25.19,WSW,250,4.0,4.0,87,0.00,,,0.00,weatherlink.com 1.10,2013-05-22 12:09:00,
2013-05-22 06:24:00,39.4,36.0,25.20,West,278,2.0,3.0,86,0.00,,,0.00,weatherlink.com 1.10,2013-05-22 12:24:00,
2013-05-22 06:39:00,40.5,36.0,25.20,WNW,302,2.0,5.0,84,0.00,,,0.00,weatherlink.com 1.10,2013-05-22 12:39:00,
2013-05-22 06:54:00,41.4,36.0,25.20,WNW,298,2.0,5.0,82,0.00,,,0.00,weatherlink.com 1.10,2013-05-22 12:54:00,
2013-05-22 07:09:00,42.5,37.0,25.21,WNW,298,0.0,4.0,82,0.00,,,0.00,weatherlink.com 1.10,2013-05-22 13:09:00,
2013-05-22 07:24:00,44.0,39.0,25.21,NNW,335,3.0,4.0,82,0.00,,,0.00,weatherlink.com 1.10,2013-05-22 13:24:00,
2013-05-22 07:39:00,45.6,39.0,25.21,NNE,29,3.0,3.0,79,0.00,,,0.00,weatherlink.com 1.10,2013-05-22 13:39:00,
2013-05-22 07:54:00,47.4,41.0,25.22,NNE,33,5.0,5.0,78,0.00,,,0.00,weatherlink.com 1.10,2013-05-22 13:54:00,
2013-05-22 08:09:00,49.8,41.0,25.22,NNE,23,2.0,6.0,73,0.00,,,0.00,weatherlink.com 1.10,2013-05-22 14:09:00,
2013-05-22 08:24:00,52.1,42.0,25.22,NNW,330,6.0,6.0,68,0.00,,,0.00,weatherlink.com 1.10,2013-05-22 14:24:00,
2013-05-22 08:39:00,53.1,42.0,25.22,NNW,341,1.0,6.0,65,0.00,,,0.00,weatherlink.com 1.10,2013-05-22 14:39:00,
2013-05-22 08:54:00,54.8,42.0,25.22,NNE,26,4.0,7.0,62,0.00,,,0.00,weatherlink.com 1.10,2013-05-22 14:54:00,
2013-05-22 09:09:00,55.2,40.0,25.22,NNW,346,2.0,9.0,58,0.00,,,0.00,weatherlink.com 1.10,2013-05-22 15:09:00,
2013-05-22 09:28:00,-999.0,-99.9,0.00,North,-999,-999.0,-999.0,-999,0.00,,,0.00,weatherlink.com 1.10,2013-05-22 15:28:00,
2013-05-22 09:40:00,56.6,40.0,25.21,NNE,22,7.0,8.0,55,0.00,,,0.00,weatherlink.com 1.10,2013-05-22 15:40:00,
2013-05-22 09:55:00,57.7,40.0,25.21,NNE,26,7.0,7.0,53,0.00,,,0.00,weatherlink.com 1.10,2013-05-22 15:55:00,
2013-05-22 10:10:00,58.7,41.0,25.21,NE,37,5.0,10.0,52,0.00,,,0.00,weatherlink.com 1.10,2013-05-22 16:10:00,
2013-05-22 10:25:00,59.5,40.0,25.21,NNW,329,8.0,8.0,49,0.00,,,0.00,weatherlink.com 1.10,2013-05-22 16:25:00,
2013-05-22 10:40:00,60.5,40.0,25.21,NNE,22,8.0,11.0,47,0.00,,,0.00,weatherlink.com 1.10,2013-05-22 16:40:00,
2013-05-22 10:55:00,60.4,39.0,25.21,SW,233,3.0,11.0,45,0.00,,,0.00,weatherlink.com 1.10,2013-05-22 16:55:00,
2013-05-22 11:10:00,63.3,40.0,25.21,WSW,253,1.0,7.0,43,0.00,,,0.00,weatherlink.com 1.10,2013-05-22 17:10:00,
2013-05-22 11:25:00,63.9,40.0,25.21,NE,55,2.0,9.0,42,0.00,,,0.00,weatherlink.com 1.10,2013-05-22 17:25:00,
2013-05-22 11:40:00,65.0,41.0,25.20,North,356,1.0,10.0,41,0.00,,,0.00,weatherlink.com 1.10,2013-05-22 17:40:00,
2013-05-22 11:55:00,64.5,40.0,25.20,NNW,335,6.0,12.0,41,0.00,,,0.00,weatherlink.com 1.10,2013-05-22 17:55:00,
2013-05-22 12:10:00,65.6,41.0,25.20,North,1,8.0,11.0,40,0.00,,,0.00,weatherlink.com 1.10,2013-05-22 18:10:00,
2013-05-22 12:25:00,65.5,40.0,25.20,NNE,16,5.0,6.0,40,0.00,,,0.00,weatherlink.com 1.10,2013-05-22 18:25:00,
2013-05-22 12:40:00,65.5,41.0,25.20,ENE,57,2.0,13.0,41,0.00,,,0.00,weatherlink.com 1.10,2013-05-22 18:40:00,
2013-05-22 12:55:00,66.7,42.0,25.19,NE,44,5.0,10.0,40,0.00,,,0.00,weatherlink.com 1.10,2013-05-22 18:55:00,
2013-05-22 13:10:00,67.5,42.0,25.19,NE,51,7.0,11.0,40,0.00,,,0.00,weatherlink.com 1.10,2013-05-22 19:10:00,
2013-05-22 13:25:00,67.7,42.0,25.19,ESE,111,2.0,10.0,39,0.00,,,0.00,weatherlink.com 1.10,2013-05-22 19:25:00,
2013-05-22 13:40:00,66.9,41.0,25.19,North,11,2.0,12.0,39,0.00,,,0.00,weatherlink.com 1.10,2013-05-22 19:40:00,
2013-05-22 13:55:00,68.2,42.0,25.19,NE,53,9.0,12.0,39,0.00,,,0.00,weatherlink.com 1.10,2013-05-22 19:55:00,
2013-05-22 14:10:00,67.9,42.0,25.19,NNE,30,11.0,14.0,39,0.00,,,0.00,weatherlink.com 1.10,2013-05-22 20:10:00,
2013-05-22 14:25:00,68.2,41.0,25.19,NNE,30,5.0,10.0,38,0.00,,,0.00,weatherlink.com 1.10,2013-05-22 20:25:00,
2013-05-22 14:40:00,68.6,42.0,25.19,NNE,32,8.0,10.0,38,0.00,,,0.00,weatherlink.com 1.10,2013-05-22 20:40:00,
2013-05-22 14:55:00,69.2,41.0,25.19,North,11,6.0,12.0,36,0.00,,,0.00,weatherlink.com 1.10,2013-05-22 20:55:00,
2013-05-22 15:10:00,68.5,41.0,25.19,NE,51,6.0,16.0,37,0.00,,,0.00,weatherlink.com 1.10,2013-05-22 21:10:00,
2013-05-22 15:25:00,68.4,41.0,25.19,ESE,105,4.0,9.0,37,0.00,,,0.00,weatherlink.com 1.10,2013-05-22 21:25:00,
2013-05-22 15:40:00,68.0,41.0,25.19,East,86,5.0,9.0,37,0.00,,,0.00,weatherlink.com 1.10,2013-05-22 21:40:00,
2013-05-22 15:55:00,68.9,41.0,25.19,East,91,1.0,11.0,36,0.00,,,0.00,weatherlink.com 1.10,2013-05-22 21:55:00,
2013-05-22 16:10:00,69.5,41.0,25.19,NNE,30,10.0,13.0,35,0.00,,,0.00,weatherlink.com 1.10,2013-05-22 22:10:00,
2013-05-22 16:25:00,68.1,41.0,25.19,NE,41,11.0,13.0,37,0.00,,,0.00,weatherlink.com 1.10,2013-05-22 22:25:00,
2013-05-22 16:41:00,68.2,40.0,25.19,NE,56,9.0,12.0,36,0.00,,,0.00,weatherlink.com 1.10,2013-05-22 22:41:00,
2013-05-22 16:56:00,67.4,40.0,25.19,NNE,13,10.0,14.0,37,0.00,,,0.00,weatherlink.com 1.10,2013-05-22 22:56:00,
2013-05-22 17:11:00,67.2,41.0,25.19,NE,46,9.0,12.0,38,0.00,,,0.00,weatherlink.com 1.10,2013-05-22 23:11:00,
2013-05-22 17:26:00,67.5,40.0,25.20,NE,56,5.0,11.0,37,0.00,,,0.00,weatherlink.com 1.10,2013-05-22 23:26:00,
2013-05-22 17:41:00,66.6,41.0,25.21,North,359,4.0,12.0,39,0.00,,,0.00,weatherlink.com 1.10,2013-05-22 23:41:00,
2013-05-22 17:56:00,65.9,39.0,25.20,NNE,20,10.0,16.0,38,0.00,,,0.00,weatherlink.com 1.10,2013-05-22 23:56:00,
2013-05-22 18:11:00,65.3,40.0,25.20,NE,53,7.0,16.0,40,0.00,,,0.00,weatherlink.com 1.10,2013-05-23 00:11:00,
2013-05-22 18:26:00,64.5,41.0,25.21,NNE,24,6.0,15.0,42,0.00,,,0.00,weatherlink.com 1.10,2013-05-23 00:26:00,
2013-05-22 18:41:00,63.6,42.0,25.22,NE,47,8.0,14.0,45,0.00,,,0.00,weatherlink.com 1.10,2013-05-23 00:41:00,
2013-05-22 18:56:00,61.7,44.0,25.23,NE,41,7.0,17.0,52,0.00,,,0.00,weatherlink.com 1.10,2013-05-23 00:56:00,
2013-05-22 19:11:00,60.0,44.0,25.23,East,79,14.0,16.0,55,0.00,,,0.00,weatherlink.com 1.10,2013-05-23 01:11:00,
2013-05-22 19:26:00,58.6,44.0,25.24,ENE,64,9.0,16.0,58,0.00,,,0.00,weatherlink.com 1.10,2013-05-23 01:26:00,
2013-05-22 19:41:00,56.8,44.0,25.25,NE,39,9.0,15.0,62,0.00,,,0.00,weatherlink.com 1.10,2013-05-23 01:41:00,
2013-05-22 19:56:00,55.5,44.0,25.26,NE,39,8.0,15.0,65,0.00,,,0.00,weatherlink.com 1.10,2013-05-23 01:56:00,
2013-05-22 20:11:00,53.8,44.0,25.26,ENE,61,14.0,14.0,69,0.00,,,0.00,weatherlink.com 1.10,2013-05-23 02:11:00,
2013-05-22 20:26:00,52.6,43.0,25.27,NNE,20,6.0,15.0,71,0.00,,,0.00,weatherlink.com 1.10,2013-05-23 02:26:00,
2013-05-22 20:41:00,51.5,44.0,25.28,NE,50,4.0,15.0,75,0.00,,,0.00,weatherlink.com 1.10,2013-05-23 02:41:00,
2013-05-22 20:56:00,50.6,43.0,25.27,NNE,29,7.0,12.0,76,0.00,,,0.00,weatherlink.com 1.10,2013-05-23 02:56:00,
2013-05-22 21:11:00,49.9,43.0,25.28,NE,51,7.0,12.0,78,0.00,,,0.00,weatherlink.com 1.10,2013-05-23 03:11:00,
2013-05-22 21:26:00,49.1,43.0,25.29,NNE,20,9.0,13.0,80,0.00,,,0.00,weatherlink.com 1.10,2013-05-23 03:26:00,
2013-05-22 21:41:00,48.5,43.0,25.30,NNE,15,4.0,10.0,82,0.00,,,0.00,weatherlink.com 1.10,2013-05-23 03:41:00,
2013-05-22 21:56:00,47.9,43.0,25.30,NE,34,5.0,8.0,83,0.00,,,0.00,weatherlink.com 1.10,2013-05-23 03:56:00,
2013-05-22 22:11:00,47.4,43.0,25.31,NE,56,5.0,10.0,85,0.00,,,0.00,weatherlink.com 1.10,2013-05-23 04:11:00,
2013-05-22 23:27:00,47.5,43.0,25.33,NE,50,4.0,6.0,84,0.00,,,0.00,weatherlink.com 1.10,2013-05-23 05:27:00,
2013-05-22 23:41:00,47.5,43.0,25.34,ENE,75,8.0,8.0,84,0.00,,,0.00,weatherlink.com 1.10,2013-05-23 05:41:00,
2013-05-22 23:56:00,47.5,44.0,25.34,NE,34,3.0,12.0,87,0.00,,,0.00,weatherlink.com 1.10,2013-05-23 05:56:00,